Tracking 20628 objects as of 6-Apr-2020
HD Live streaming from Space Station
objects crossing your sky now

COSMOS 2065

Track COSMOS 2065 now!
10-day predictions
COSMOS 2065 is classified as:


NORAD ID: 20550
Int'l Code: 1990-029B
Perigee: 1,469.0 km
Apogee: 1,481.2 km
Inclination: 74.0 °
Period: 115.3 minutes
Semi major axis: 7846 km
RCS: 0.6645 m2 (medium)
Launch date: April 6, 1990
Source: Commonwealth of Independent States (former USSR) (CIS)
Launch site: PLESETSK MISSILE AND SPACE COMPLEX (PKMTR)
aabbcc
Your satellite tracking list
Your tracking list is empty




NASA's NSSDC Master Catalog

Two Line Element Set (TLE):
1 20550U 90029B   20096.30557333 -.00000008 +00000-0 +54953-4 0  9997
2 20550 073.9807 071.5121 0007786 130.4351 339.0607 12.49165232368000
Source of the keplerian elements: AFSPC